Location: Burbank
(38.7788°N, 114.0429°W)
Time: 02:32:37
(UTC+00:00)

Tiros 1 despin weight - Pass Details

Date: 18 May 2026
Orbit: 554 x 591 km, 48.2° (Epoch: 6 June)

Event Time Altitude Azimuth Distance (km) Brightness Sun altitude
Rises 17:06:43 0° 302° (WNW) 2,735 ? 53.2°
Reaches altitude 10° 17:08:58 10° 302° (WNW) 1,835 ? 53.6°
Maximum altitude 17:13:10 88° 214° (SSW) 558 ? 54.4°
Drops below altitude 10° 17:17:20 10° 125° (SE) 1,826 ? 55.1°
Sets 17:19:34 0° 125° (SE) 2,719 ? 55.5°
